Watertown, SD

7:10 PM CDT on October 20, 2017 (GMT -0500)
Watertown Municipal

Weather History for KATY - May, 2013

Change the Weather History Date:

Sunday, May 19, 2013

  Actual Average Record
Temperature  
Mean Temperature 66 °F 57 °F  
Max Temperature 72 °F 68 °F 94 °F (2009)
Min Temperature 59 °F 46 °F 28 °F (2002)
Degree Days  
Heating Degree Days 0 9  
Month to date heating degree days 239 213  
Since 1 July heating degree days 8913 8364  
Cooling Degree Days 1 1  
Month to date cooling degree days 19 8  
Year to date cooling degree days 19 10  
Growing Degree Days 15 (Base 50)    
Moisture  
Dew Point 59 °F    
Average Humidity 81    
Maximum Humidity 100    
Minimum Humidity 61    
Precipitation  
Precipitation 0.47 in 0.08 in 1.00 in (1918)
Month to date precipitation 0.97 1.54  
Year to date precipitation 5.73 5.75  
Sea Level Pressure  
Sea Level Pressure 29.61 in    
Wind  
Wind Speed 10 mph (South)    
Max Wind Speed 39 mph    
Max Gust Speed 47 mph    
Visibility 8 miles    
Events Rain , Thunderstorm    
T = Trace of Precipitation, MM = Missing Value Source: NWS Daily Summary

Daily Weather History Graph

Daily Weather History Graph

Search for Another Location

Airport or City:

Trip Planner

Search our weather history database for the weather conditions in past years. The results will help you decide how hot, cold, wet, or windy it might be!

Date:

Astronomy

May. 19, 2013 Rise Set
Actual Time 5:55 AM CDT 8:55 PM CDT
Civil Twilight 5:20 AM CDT 9:30 PM CDT
Nautical Twilight 4:36 AM CDT 10:14 PM CDT
Astronomical Twilight 3:43 AM CDT 11:08 PM CDT
Moon 2:46 PM CDT (5/19) 2:35 AM CDT (5/19)
Length of Visible Light 16h 09m
Length of Day
15h 00m
Waxing Gibbous, 65% of the Moon is Illuminated
May 19
Waxing Gibbous
May 24
Full
May 31
Last Quarter
Jun 8
New
Jun 16
First Quarter

Hourly Weather History & Observations

Time (CDT) Temp. Dew Point Humidity Pressure Visibility Wind Dir Wind Speed Gust Speed Precip Events Conditions
12:53 AM 71.1 °F 59.0 °F 66% 29.64 in 10.0 mi SE 9.2 mph - N/A   Overcast
1:53 AM 71.1 °F 60.1 °F 68% 29.61 in 10.0 mi SSE 13.8 mph - N/A   Scattered Clouds
2:05 AM 71.6 °F 60.8 °F 69% 29.65 in 10.0 mi SSE 18.4 mph 26.5 mph N/A Thunderstorm Mostly Cloudy
2:16 AM 68.0 °F 60.8 °F 78% 29.71 in 1.8 mi SW 35.7 mph 47.2 mph 0.09 in Rain , Thunderstorm Light Rain
2:18 AM 64.4 °F 60.8 °F 88% 29.70 in 1.0 mi WSW 29.9 mph 47.2 mph 0.16 in Rain , Thunderstorm Thunderstorms and Rain
2:24 AM 62.6 °F 60.8 °F 94% 29.72 in 0.8 mi WSW 23.0 mph 42.6 mph 0.32 in Rain , Thunderstorm Heavy Thunderstorms and Rain
2:30 AM 60.8 °F 59.0 °F 94% 29.71 in 1.5 mi SW 17.3 mph 31.1 mph 0.35 in Rain , Thunderstorm Heavy Thunderstorms and Rain
2:34 AM 60.8 °F 59.0 °F 94% 29.71 in 3.0 mi WSW 15.0 mph - 0.36 in Rain , Thunderstorm Thunderstorms and Rain
2:53 AM 60.1 °F 59.0 °F 96% 29.68 in 10.0 mi SW 4.6 mph - 0.38 in Rain , Thunderstorm Light Rain
3:20 AM 59.0 °F 57.2 °F 94% 29.67 in 9.0 mi East 3.5 mph - 0.04 in Rain Light Rain
3:53 AM 60.1 °F 59.0 °F 96% 29.62 in 10.0 mi East 8.1 mph - 0.08 in Rain Light Rain
4:53 AM 60.1 °F 57.9 °F 93% 29.56 in 10.0 mi East 8.1 mph - 0.00 in   Clear
5:53 AM 60.1 °F 57.9 °F 93% 29.56 in 10.0 mi ESE 8.1 mph - 0.01 in   Scattered Clouds
6:02 AM 60.8 °F 59.0 °F 94% 29.58 in 10.0 mi ESE 11.5 mph 17.3 mph N/A   Mostly Cloudy
7:53 AM 62.1 °F 61.0 °F 96% 29.57 in 9.0 mi SE 10.4 mph 16.1 mph N/A   Overcast
8:10 AM 62.6 °F 60.8 °F 94% 29.60 in 10.0 mi SSE 11.5 mph - N/A   Overcast
8:53 AM 63.0 °F 60.1 °F 90% 29.58 in 10.0 mi South 13.8 mph - N/A   Overcast
9:09 AM 62.6 °F 59.0 °F 88% 29.61 in 10.0 mi SSW 16.1 mph 20.7 mph N/A   Overcast
9:24 AM 64.4 °F 60.8 °F 88% 29.61 in 10.0 mi SSW 15.0 mph - N/A   Scattered Clouds
9:53 AM 64.0 °F 57.9 °F 80% 29.59 in 10.0 mi SSW 15.0 mph - N/A   Mostly Cloudy
10:53 AM 64.0 °F 57.9 °F 80% 29.59 in 10.0 mi SSW 10.4 mph - N/A   Overcast
11:53 AM 64.9 °F 57.9 °F 78% 29.59 in 10.0 mi SSW 16.1 mph - N/A   Overcast
12:53 PM 66.9 °F 57.0 °F 70% 29.59 in 10.0 mi SW 15.0 mph - N/A   Overcast
1:45 PM 69.8 °F 57.2 °F 64% 29.61 in 10.0 mi South 15.0 mph - N/A   Overcast
2:53 PM 71.1 °F 57.9 °F 63% 29.59 in 10.0 mi SSW 15.0 mph 23.0 mph N/A   Mostly Cloudy
3:53 PM 71.1 °F 57.9 °F 63% 29.59 in 10.0 mi SSW 13.8 mph - N/A   Mostly Cloudy
4:53 PM 70.0 °F 57.9 °F 65% 29.58 in 10.0 mi South 11.5 mph - N/A   Mostly Cloudy
5:53 PM 70.0 °F 59.0 °F 68% 29.56 in 10.0 mi South 10.4 mph - N/A   Partly Cloudy
6:53 PM 71.1 °F 59.0 °F 66% 29.53 in 10.0 mi SSW 6.9 mph - N/A   Clear
7:53 PM 68.0 °F 57.9 °F 70% 29.53 in 10.0 mi South 4.6 mph - N/A   Clear
8:53 PM 66.9 °F 60.1 °F 79% 29.55 in 10.0 mi SSE 6.9 mph - N/A   Partly Cloudy
9:53 PM 64.9 °F 59.0 °F 81% 29.55 in 10.0 mi ESE 3.5 mph - N/A   Clear
11:53 PM 62.1 °F 60.1 °F 93% 29.52 in 6.0 mi ESE 3.5 mph - N/A   Clear